Regional Weather Roundup
Issued by NWS

Home | Current Version | Previous Version | Graphics & Text | Print | Product List | Glossary On
Versions: 1 2 3 4 5 6 7 8 9 10 11 12 13 14 15 16 17 18 19 20 21 22 23 24 25 26 27 28 29 30 31 32 33 34 35 36 37 38 39 40 41 42 43 44 45 46 47 48 49 50
000
ASUS43 KFSD 230510
RWRSD

WEATHER ROUNDUP FOR SOUTH DAKOTA
NATIONAL WEATHER SERVICE SIOUX FALLS SD
1200 AM CDT TUE SEP 23 2014

NOTE: "FAIR" INDICATES FEW OR NO CLOUDS BELOW 12,000 FEET WITH NO
SIGNIFICANT WEATHER AND/OR OBSTRUCTIONS TO VISIBILITY.


SDZ001>005-009-010-012>017-230600-
NORTHWEST AND NORTH CENTRAL SOUTH DAKOTA

CITY           SKY/WX    TMP DP  RH WIND       PRES   REMARKS
BUFFALO          N/A     62  50  64 SE10      29.84S
FAITH            N/A     62  54  74 S15       29.90F
MOBRIDGE       PTCLDY    65  54  67 S15       29.93F
$$

SDZ012>016-024>037-041>051-057-063-072>074-230600-
SOUTHWEST AND SOUTH CENTRAL SOUTH DAKOTA

CITY           SKY/WX    TMP DP  RH WIND       PRES   REMARKS
RAPID CTY ARPT CLOUDY    60  54  80 CALM      29.94F
PIERRE         CLOUDY    62  54  74 S18       29.97F
CUSTER         MOCLDY    53  50  89 CALM      30.06F
ELLSWORTH AFB  CLOUDY    63  55  76 S6        29.93F
PHILIP         LGT RAIN  61  55  81 VRB3      29.95F
PINE RIDGE     PTCLDY    63  52  67 S16       29.98F
WINNER         LGT RAIN  62  56  80 S20G28    30.02F
$$

SDZ004>011-016>023-039-040-230600-
NORTHEAST SOUTH DAKOTA

CITY           SKY/WX    TMP DP  RH WIND       PRES   REMARKS
ABERDEEN       PTCLDY    62  50  64 S12       30.04S
WATERTOWN      CLEAR     56  49  77 S9        30.10F
SISSETON         N/A     54  49  83 S7        30.06S
$$

SDZ017-020-022-023-036>040-048>070-230600-
SOUTHEAST SOUTH DAKOTA

CITY           SKY/WX    TMP DP  RH WIND       PRES   REMARKS
SIOUX FALLS    MOCLDY    61  49  64 S12       30.14F
HURON          MOCLDY    63  50  62 S13       30.06F
CHAMBERLAIN    CLOUDY    64  52  65 S9        30.04F
MITCHELL       CLOUDY    64  52  64 S9        30.09S
YANKTON        MOCLDY    61  48  63 S8        30.14S
$$

ABBREVIATIONS USED IN REMARKS
   TC - TEMPERATURE IN CELSIUS
  WCI - WIND CHILL INDEX
   HX - HEAT INDEX
  VSB - VISIBILITY




USA.gov is the U.S. government's official web portal to all federal, state and local government web resources and services.